Sunlight Mountain, CO

11:45 AM MDT on June 25, 2017 (GMT -0600)
Sunlight Mountain

Weather History for K5SM - May, 2014

Change the Weather History Date:

Saturday, May 17, 2014

  Actual Average (KRIL) Record (KRIL)
Temperature  
Mean Temperature 46 °F -  
Max Temperature 55 °F 73 °F 87 °F (1948)
Min Temperature 37 °F 38 °F 24 °F (1968)
Degree Days  
Heating Degree Days 19    
Moisture  
Dew Point 27 °F    
Average Humidity 51    
Maximum Humidity 81    
Minimum Humidity 28    
Precipitation  
Precipitation 0.00 in - - ()
Sea Level Pressure  
Sea Level Pressure 30.29 in    
Wind  
Wind Speed 1 mph (SW)    
Max Wind Speed 5 mph    
Max Gust Speed -    
Visibility 10 miles    
Events      
Averages and records for this station are not official NWS values.
T = Trace of Precipitation, MM = Missing Value Source: NWS Daily Summary

Daily Weather History Graph

Daily Weather History Graph

Search for Another Location

Airport or City:

Trip Planner

Search our weather history database for the weather conditions in past years. The results will help you decide how hot, cold, wet, or windy it might be!

Date:

Astronomy

May. 17, 2014 Rise Set
Actual Time 5:53 AM MDT 8:18 PM MDT
Civil Twilight 5:23 AM MDT 8:49 PM MDT
Nautical Twilight 4:45 AM MDT 9:26 PM MDT
Astronomical Twilight 4:04 AM MDT 10:08 PM MDT
Moon 11:21 PM MDT (5/17) 8:39 AM MDT (5/17)
Length of Visible Light 15h 25m
Length of Day
14h 24m
Waning Gibbous, 89% of the Moon is Illuminated
May 17
Waning Gibbous
May 21
Last Quarter
May 28
New
Jun 5
First Quarter
Jun 12
Full

Hourly Weather History & Observations

Time (MDT) Temp. Windchill Dew Point Humidity Pressure Visibility Wind Dir Wind Speed Gust Speed Precip Events Conditions
12:00 AM 39.2 °F - 33.8 °F 81% 30.34 in 10.0 mi Calm Calm - N/A   Mostly Cloudy
12:20 AM 41.0 °F - 33.8 °F 76% 30.33 in 10.0 mi Calm Calm - N/A   Overcast
12:39 AM 39.2 °F - 32.0 °F 75% 30.32 in 10.0 mi Calm Calm - N/A   Overcast
1:19 AM 37.4 °F - 32.0 °F 81% 30.31 in 10.0 mi Calm Calm - N/A   Clear
1:40 AM 37.4 °F 34.9 °F 32.0 °F 81% 30.30 in 10.0 mi SSW 3.5 mph - N/A   Clear
2:00 AM 37.4 °F 34.9 °F 32.0 °F 81% 30.30 in 10.0 mi SSW 3.5 mph - N/A   Clear
2:20 AM 37.4 °F - 32.0 °F 81% 30.29 in 10.0 mi Calm Calm - N/A   Clear
2:40 AM 39.2 °F - 32.0 °F 75% 30.28 in 10.0 mi Calm Calm - N/A   Clear
3:00 AM 37.4 °F - 32.0 °F 81% 30.28 in 10.0 mi Calm Calm - N/A   Clear
3:19 AM 39.2 °F - 32.0 °F 75% 30.28 in 10.0 mi Calm Calm - N/A   Scattered Clouds
3:40 AM 37.4 °F - 32.0 °F 81% 30.27 in 10.0 mi Calm Calm - N/A   Mostly Cloudy
4:00 AM 37.4 °F - 32.0 °F 81% 30.27 in 10.0 mi Calm Calm - N/A   Scattered Clouds
4:19 AM 37.4 °F - 30.2 °F 75% 30.27 in 10.0 mi Calm Calm - N/A   Scattered Clouds
4:40 AM 37.4 °F - 30.2 °F 75% 30.27 in 10.0 mi Calm Calm - N/A   Mostly Cloudy
5:00 AM 37.4 °F - 32.0 °F 81% 30.27 in 10.0 mi Calm Calm - N/A   Mostly Cloudy
5:20 AM 39.2 °F - 32.0 °F 75% 30.27 in 10.0 mi Calm Calm - N/A   Mostly Cloudy
5:40 AM 37.4 °F - 30.2 °F 75% 30.27 in 10.0 mi Calm Calm - N/A   Scattered Clouds
6:00 AM 39.2 °F - 30.2 °F 70% 30.27 in 10.0 mi Calm Calm - N/A   Scattered Clouds
6:20 AM 39.2 °F - 30.2 °F 70% 30.28 in 10.0 mi Calm Calm - N/A   Scattered Clouds
6:41 AM 39.2 °F 37.0 °F 30.2 °F 70% 30.28 in 10.0 mi SW 3.5 mph - N/A   Clear
7:00 AM 39.2 °F - 30.2 °F 70% 30.28 in 10.0 mi Calm Calm - N/A   Clear
7:21 AM 41.0 °F - 30.2 °F 65% 30.28 in 10.0 mi Calm Calm - N/A   Clear
7:41 AM 41.0 °F - 30.2 °F 65% 30.29 in 10.0 mi Calm Calm - N/A   Clear
8:01 AM 41.0 °F - 30.2 °F 65% 30.29 in 10.0 mi Calm Calm - N/A   Clear
8:21 AM 42.8 °F - 28.4 °F 57% 30.29 in 10.0 mi Calm Calm - N/A   Clear
8:41 AM 44.6 °F - 28.4 °F 53% 30.30 in 10.0 mi Calm Calm - N/A   Clear
9:01 AM 44.6 °F - 28.4 °F 53% 30.30 in 10.0 mi Calm Calm - N/A   Clear
9:19 AM 46.4 °F - 28.4 °F 50% 30.30 in 10.0 mi Calm Calm - N/A   Clear
9:41 AM 46.4 °F 45.2 °F 26.6 °F 46% 30.31 in 10.0 mi SW 3.5 mph - N/A   Clear
10:00 AM 48.2 °F - 26.6 °F 43% 30.31 in 10.0 mi WSW 3.5 mph - N/A   Clear
10:21 AM 48.2 °F - 26.6 °F 43% 30.31 in 10.0 mi WSW 4.6 mph - N/A   Clear
10:40 AM 50.0 °F - 26.6 °F 40% 30.31 in 10.0 mi WSW 3.5 mph - N/A   Clear
11:01 AM 50.0 °F - 26.6 °F 40% 30.32 in 10.0 mi WSW 4.6 mph - N/A   Clear
11:21 AM 50.0 °F - 26.6 °F 40% 30.32 in 10.0 mi Calm Calm - N/A   Scattered Clouds
11:40 AM 51.8 °F - 26.6 °F 38% 30.32 in 10.0 mi Calm Calm - N/A   Scattered Clouds
12:01 PM 51.8 °F - 23.0 °F 33% 30.31 in 10.0 mi Calm Calm - N/A   Clear
12:21 PM 51.8 °F - 21.2 °F 30% 30.31 in 10.0 mi Calm Calm - N/A   Scattered Clouds
12:41 PM 53.6 °F - 21.2 °F 28% 30.31 in 10.0 mi SW 4.6 mph - N/A   Scattered Clouds
1:01 PM 53.6 °F - 21.2 °F 28% 30.30 in 10.0 mi SW 4.6 mph - N/A   Scattered Clouds
1:21 PM 53.6 °F - 21.2 °F 28% 30.30 in 10.0 mi Calm Calm - N/A   Clear
1:40 PM 53.6 °F - 24.8 °F 33% 30.30 in 10.0 mi WSW 4.6 mph - N/A   Clear
2:01 PM 53.6 °F - 23.0 °F 30% 30.30 in 10.0 mi WSW 4.6 mph - N/A   Clear
2:21 PM 53.6 °F - 26.6 °F 35% 30.30 in 10.0 mi West 3.5 mph - N/A   Clear
2:41 PM 55.4 °F - 26.6 °F 33% 30.29 in 10.0 mi South 4.6 mph - N/A   Scattered Clouds
3:01 PM 53.6 °F - 24.8 °F 33% 30.29 in 10.0 mi Calm Calm - N/A   Scattered Clouds
3:21 PM 53.6 °F - 24.8 °F 33% 30.29 in 10.0 mi SW 3.5 mph - N/A   Scattered Clouds
3:41 PM 53.6 °F - 24.8 °F 33% 30.29 in 10.0 mi Calm Calm - N/A   Mostly Cloudy
4:21 PM 55.4 °F - 26.6 °F 33% 30.28 in 10.0 mi Calm Calm - N/A   Scattered Clouds
4:41 PM 53.6 °F - 24.8 °F 33% 30.28 in 10.0 mi Calm Calm - N/A   Scattered Clouds
5:01 PM 55.4 °F - 24.8 °F 31% 30.28 in 10.0 mi SSW 3.5 mph - N/A   Scattered Clouds
5:21 PM 53.6 °F - 24.8 °F 33% 30.28 in 10.0 mi Calm Calm - N/A   Clear
5:41 PM 53.6 °F - 23.0 °F 30% 30.28 in 10.0 mi Calm Calm - N/A   Clear
6:01 PM 53.6 °F - 23.0 °F 30% 30.28 in 10.0 mi Calm Calm - N/A   Mostly Cloudy
6:21 PM 53.6 °F - 23.0 °F 30% 30.27 in 10.0 mi Calm Calm - N/A   Scattered Clouds
6:41 PM 51.8 °F - 24.8 °F 35% 30.27 in 10.0 mi Calm Calm - N/A   Clear
7:01 PM 51.8 °F - 24.8 °F 35% 30.27 in 10.0 mi Calm Calm - N/A   Clear
7:20 PM 50.0 °F - 23.0 °F 35% 30.27 in 10.0 mi Calm Calm - N/A   Clear
7:41 PM 48.2 °F - 26.6 °F 43% 30.28 in 10.0 mi Calm Calm - N/A   Clear
8:00 PM 46.4 °F - 26.6 °F 46% 30.28 in 10.0 mi Calm Calm - N/A   Clear
8:20 PM 46.4 °F - 26.6 °F 46% 30.27 in 10.0 mi Calm Calm - N/A   Clear
8:40 PM 44.6 °F - 24.8 °F 46% 30.27 in 10.0 mi Calm Calm - N/A   Clear
9:01 PM 44.6 °F - 24.8 °F 46% 30.28 in 10.0 mi Calm Calm - N/A   Mostly Cloudy
9:21 PM 44.6 °F - 24.8 °F 46% 30.28 in 10.0 mi Calm Calm - N/A   Overcast
9:39 PM 44.6 °F - 23.0 °F 43% 30.28 in 10.0 mi Calm Calm - N/A   Mostly Cloudy
10:00 PM 44.6 °F - 23.0 °F 43% 30.28 in 10.0 mi Calm Calm - N/A   Scattered Clouds
10:20 PM 46.4 °F - 21.2 °F 37% 30.29 in 10.0 mi Calm Calm - N/A   Clear
10:39 PM 44.6 °F - 23.0 °F 43% 30.28 in 10.0 mi Calm Calm - N/A   Clear
11:00 PM 44.6 °F - 23.0 °F 43% 30.28 in 10.0 mi Calm Calm - N/A   Clear
11:20 PM 44.6 °F - 21.2 °F 39% 30.27 in 10.0 mi Calm Calm - N/A   Scattered Clouds
11:40 PM 44.6 °F - 23.0 °F 43% 30.26 in 10.0 mi Calm Calm - N/A   Scattered Clouds